Location: Allainville
(48.4569°N, 1.8958°E)
Time: 00:18:59
(UTC+00:00)

Daily predictions for brighter satellites

Satellite Brightness Start Highest point End
(mag) Time Altitude Azimuth Time Altitude Azimuth Time Altitude Azimuth
Cosmos 1980 Rocket 4.4 01:30:17 10° N 01:41:00 - ESE 01:32:42 20° N
SL-16 R/B 4.3 01:51:00 23° NNW 01:51:00 23° NNW 01:53:09 10° NNW
Resurs 1-4 Rocket 4.1 02:01:18 10° N 02:03:14 23° N 02:03:14 23° N
IDEFIX/ARIANE 42P 4.3 02:03:08 10° NNE 02:05:39 29° NNE 02:05:39 29° NNE
Cosmos 1833 Rocket 3.9 02:13:00 38° NE 02:13:00 38° NE 02:16:40 10° NE
CZ-2D R/B 3.9 02:16:48 10° N 02:18:58 24° N 02:18:58 24° N
CENTAUR R/B 4.0 02:27:14 23° SE 02:28:20 25° ESE 02:33:36 10° ENE
Lacrosse 4 Rocket 4.0 02:30:46 18° NNE 02:32:04 20° NE 02:35:21 10° E
Cosmos 2082 Rocket 3.2 02:38:49 38° ESE 02:39:03 38° ESE 02:44:12 10° NE
ADEOS II 3.4 02:39:38 10° N 02:42:28 31° N 02:42:28 31° N
CZ-2C R/B 3.8 02:45:40 10° NNE 02:50:06 32° E 02:51:08 29° ESE
COSMOS 2406 3.2 03:01:52 72° ESE 03:01:56 72° ESE 03:07:37 10° NNE
NOSS 3-2 (A) 4.2 03:01:33 36° SE 03:02:43 40° ESE 03:08:29 10° NE
Cosmos 1371 Rocket 4.3 03:06:18 59° N 03:06:18 59° N 03:10:37 10° NNE
Cosmos 1605 Rocket 3.9 03:06:05 67° NW 03:06:05 67° NW 03:11:44 10° N
ATLAS CENTAUR R/B 2.3 03:08:06 54° NNE 03:08:06 54° NNE 03:11:55 10° NE
Cosmos 1328 Rocket 4.2 03:12:11 51° NNE 03:12:11 51° NNE 03:15:35 10° NNE
MSX 4.4 03:06:15 10° N 03:10:47 43° NW 03:10:47 43° NW
Cosmos 2322 Rocket 4.1 03:08:13 10° NNW 03:13:06 28° NE 03:17:56 10° ESE
Meteor 1-11 Rocket 3.7 03:11:00 10° NNW 03:17:00 80° W 03:18:13 58° S
Cosmos 1980 Rocket 3.7 03:13:52 10° NNW 03:23:06 22° SSE 03:25:00 10° SSE
USA 308 3.7 03:25:30 44° NNE 03:25:30 44° NNE 03:28:53 10° ENE
Cosmos 1850 Rocket 4.3 03:20:00 10° NNW 03:25:21 68° ENE 03:30:40 10° SSE
Cosmos 44 Rocket 3.1 03:26:24 80° N 03:26:24 80° N 03:30:55 10° NE
ATLAS 5 CENTAUR R/B 4.2 03:23:34 10° NNW 03:26:21 15° NNE 03:29:26 10° NE
PAYLOAD A 4.2 03:21:40 10° NNE 03:26:31 66° ESE 03:28:15 40° S
SL-19 R/B 4.5 03:21:20 10° NNE 03:27:33 79° ESE 03:30:17 34° S
CBERS-1 3.9 03:28:01 10° NNE 03:33:10 80° WNW 03:33:56 64° SW
Cosmos 2056 Rocket 3.8 03:35:21 46° NW 03:35:21 46° NW 03:39:56 10° NNE
Cosmos 2173 Rocket 4.0 03:33:20 19° S 03:37:55 80° E 03:44:01 10° N
Cosmos 1420 Rocket 4.2 03:38:26 51° WNW 03:38:27 51° WNW 03:43:31 10° NNE
Cosmos 1346 Rocket 4.2 03:40:21 28° NNW 03:40:21 28° NNW 03:42:28 10° N
Cosmos 1515 Rocket 3.6 03:37:57 49° S 03:39:05 76° E 03:43:34 10° NNE
GP-B 4.4 03:36:10 10° SSE 03:40:19 41° E 03:44:29 10° NNE
Cosmos 1461 3.0 03:42:22 59° SSE 03:42:47 64° SE 03:46:57 10° NE
IRS-1D 4.0 03:38:14 10° N 03:43:03 42° WNW 03:43:03 42° WNW
ALOS 2.1 03:38:36 10° N 03:43:15 68° WNW 03:43:37 65° WSW
Cosmos 2278 3.5 03:37:58 10° NNW 03:43:40 81° WSW 03:49:18 10° SSE
SL-16 R/B 2.8 03:38:31 10° NNW 03:44:08 56° ENE 03:49:41 10° SE
Cosmos 1470 Rocket 4.4 03:40:45 10° NNW 03:43:30 36° NNW 03:43:30 36° NNW
USA 305 3.6 03:44:58 39° NNW 03:45:18 40° N 03:49:12 10° ENE
Resurs 1-4 Rocket 4.2 03:43:15 10° NNW 03:44:18 12° NW 03:44:18 12° NW
IDEFIX/ARIANE 42P 4.2 03:43:44 10° NNW 03:46:27 19° NW 03:46:27 19° NW
FENGYUN 3A 3.8 03:45:11 10° N 03:50:26 54° WNW 03:51:35 45° WSW
NOSS 3-3 (A) 4.5 03:43:16 10° NW 03:50:45 87° SW 03:59:19 10° SE
NOSS 3-3 (C) 4.5 03:43:22 10° NW 03:50:51 88° SW 03:59:25 10° SE
METEOR-M 4.1 03:47:19 10° NNE 03:52:43 84° ESE 03:56:56 17° SSW
Cosmos 1833 Rocket 3.6 03:54:43 30° WNW 03:55:23 30° NW 04:00:22 10° NNE
IRS-P3 4.2 03:50:01 10° NNE 03:55:23 76° ESE 04:00:43 10° S
Cosmos 1741 Rocket 3.8 03:51:50 10° NNW 03:57:03 73° WSW 04:02:15 10° SSE
Cosmos 2228 Rocket 4.4 03:58:29 10° SSE 04:02:39 40° E 04:06:48 10° NNE
Cosmos 2219 Rocket 4.4 03:59:50 10° N 04:04:18 23° NE 04:08:44 10° E
Cosmos 1331 Rocket 4.2 04:00:12 14° S 04:04:38 69° ESE 04:09:48 10° NNE
YAOGAN 6 3.2 04:02:19 10° NNE 04:05:53 56° E 04:09:25 10° S
Cosmos 1484 Rocket 2.9 04:07:06 10° NNE 04:11:06 79° ESE 04:14:54 11° S
Lacrosse 4 Rocket 1.4 04:07:07 12° NW 04:11:09 74° WSW 04:15:34 10° SSE
Lacrosse 5 rocket 4.3 04:09:32 10° SSE 04:11:49 14° ESE 04:14:05 10° E
ARIANE 5 R/B 2.3 04:08:00 10° NNE 04:13:03 81° WNW 04:18:02 10° SSW
Meteor 1-27 Rocket 4.1 04:10:33 28° SW 04:13:16 47° WNW 04:18:59 10° N
Helios 1B rocket 2.5 04:09:43 10° N 04:13:43 55° WNW 04:15:11 34° SW
CZ-2C R/B 2.5 04:09:24 10° S 04:14:37 63° WSW 04:19:59 10° NNW
Meteor 1-29 3.8 04:13:25 10° NNE 04:16:39 49° E 04:19:51 10° S
ERS-1 4.5 04:12:24 10° NNE 04:17:38 79° WNW 04:22:49 10° SSW
CENTAUR R/B 2.5 04:14:25 25° SW 04:18:06 76° NW 04:25:25 10° NE
CZ-2C R/B 3.8 04:13:17 10° NNE 04:18:57 60° E 04:24:20 10° S
Cosmos 2100 Rocket 4.1 04:15:24 17° SW 04:19:59 50° WNW 04:26:00 10° N
Cosmos 2333 Rocket 3.7 04:15:38 10° NNW 04:20:55 37° NE 04:26:08 10° ESE
Cosmos 1110 Rocket 3.9 04:16:34 15° SSW 04:20:57 81° WNW 04:26:10 10° NNE
Cosmos 2016 Rocket 4.0 04:15:18 10° SSW 04:21:41 78° W 04:28:06 10° N
CZ-4C R/B 3.9 04:17:27 10° SSE 04:21:41 66° ENE 04:26:02 10° N
Cosmos 2082 Rocket 2.7 04:20:41 27° WSW 04:23:07 41° NW 04:28:25 10° NNE
ADEOS II 4.2 04:22:18 10° NW 04:23:22 11° NW 04:23:23 11° NW
COSMO-SKYMED 1 4.1 04:20:13 10° SE 04:24:15 38° ENE 04:28:17 10° N
SL-08 R/B 4.4 04:18:11 10° S 04:24:16 85° W 04:30:29 10° N
Okean 1 3.6 04:23:13 28° SW 04:24:59 46° WNW 04:28:54 10° N
Cosmos 1452 Rocket 3.7 04:24:11 22° SW 04:27:21 52° WNW 04:32:32 10° NNE
USA 276 3.7 04:26:13 19° SSW 04:27:38 27° SSE 04:30:16 10° E
Cosmos 1869 Rocket 3.4 04:23:21 10° NNW 04:27:48 73° W 04:32:09 10° S
Cosmos 2360 Rocket 2.8 04:22:33 10° NNW 04:28:07 58° ENE 04:33:39 10° SE
CZ-2C R/B 3.0 04:23:49 10° N 04:28:19 36° WNW 04:30:30 24° WSW
Meteor 1-18 Rocket 4.2 04:23:09 10° S 04:28:51 88° ESE 04:34:28 10° NNE
USA 307 3.8 04:27:02 21° WNW 04:29:15 37° N 04:33:07 10° ENE
Envisat 3.0 04:24:22 10° NNE 04:29:29 88° ESE 04:34:34 10° SSW
ERBS 4.4 04:28:31 12° NNW 04:29:48 15° N 04:31:35 10° NE
Cosmos 968 Rocket 3.5 04:24:58 10° NNW 04:30:10 82° ENE 04:35:18 10° SSE
Orbus 7S? 4.4 04:33:42 23° WNW 04:35:41 44° NNW 04:42:19 10° ENE
Cosmos 489 Rocket 4.4 04:30:26 10° NNW 04:36:40 70° WSW 04:42:49 10° S
USA 306 3.9 04:35:54 17° WNW 04:38:35 37° N 04:42:25 10° ENE
H-2A R/B 2.7 04:36:46 10° NNE 04:40:26 78° ESE 04:44:06 10° S
SL-24 R/B - RUBIN 2 3.6 04:38:52 19° SW 04:41:53 60° NW 04:46:14 10° NE
Cosmos 2061 Rocket 3.9 04:35:56 10° SSW 04:42:03 65° WNW 04:48:15 10° N
PSLV R/B 3.8 04:41:21 10° NNE 04:45:40 72° ESE 04:49:55 10° S
ATLAS CENTAUR R/B 3.4 04:44:03 15° WNW 04:46:33 21° NNW 04:50:10 10° NNE
Cosmos 1733 Rocket 3.6 04:42:22 10° N 04:46:48 64° ENE 04:51:09 10° SSE
COSMOS 2406 4.4 04:43:57 17° W 04:46:49 25° NW 04:51:29 10° N
Cosmos 2344 4.5 04:39:58 10° NW 04:48:31 72° NE 05:00:23 10° SE
X-37B 2.6 04:49:24 13° SW 04:49:39 13° SSW 04:51:04 10° S
CZ-2D R/B 3.8 04:46:03 10° N 04:49:47 40° WNW 04:53:34 10° SW
Meteor 2-4 Rocket 3.7 04:45:35 10° SSW 04:51:17 72° WNW 04:56:52 10° N
NOSS 3-2 (A) 3.8 04:48:58 16° WSW 04:53:25 49° NW 04:59:52 10° NE
NOSS 3-2 (C) 3.3 04:48:34 10° SW 04:54:05 75° NW 05:00:38 10° NE
Cosmos 1975 3.2 04:52:32 10° NNW 04:56:15 38° W 04:59:55 10° SSW
Cosmos 2322 Rocket 2.2 04:51:57 10° NNW 04:57:34 62° WSW 05:03:08 10° SSE
SL-08 R/B 3.9 04:54:17 10° SSW 04:58:33 34° W 05:02:54 10° NNW
Cosmos 2237 4.3 04:53:49 10° NW 04:59:23 57° WSW 05:04:56 10° S
Cosmos 1242 Rocket 2.6 04:56:51 10° NNW 05:00:09 46° W 05:03:24 10° S
CZ-2C R/B 2.7 04:56:47 10° NNE 05:00:36 83° WNW 05:04:28 10° SSW
Cosmos 2233 Rocket 4.0 04:56:46 10° SSW 05:03:01 63° WNW 05:09:18 10° N
USA 308 3.8 05:01:01 10° WNW 05:04:49 38° N 05:08:41 10° ENE
COSMOS 2455 2.8 05:01:04 10° NW 05:07:07 77° WSW 05:13:08 10° SSE
Cosmos 1805 3.1 05:05:27 10° NNW 05:09:20 75° W 05:13:11 10° S
USA 238 DEB 3.7 05:03:29 10° SW 05:09:56 70° NW 05:16:51 10° NE
USA 238 3.7 05:03:35 10° SW 05:10:01 70° NW 05:16:57 10° NE
Tsikada Rocket 4.4 05:04:48 10° NNW 05:10:39 42° W 05:16:24 10° SSW
ATLAS 5 CENTAUR R/B 3.6 05:07:35 10° NNW 05:12:13 35° NE 05:17:46 10° ESE
SKYMED 2 3.5 05:07:55 10° S 05:12:15 73° WSW 05:16:37 10° NNW
CZ-4B R/B 3.7 05:09:31 10° NNE 05:14:49 84° ESE 05:20:06 10° SSW
Aureole 1 Rocket 4.0 05:13:15 10° NNW 05:16:53 38° ENE 05:19:54 10° SE
GP-B 4.3 05:14:18 10° SW 05:17:47 22° W 05:21:16 10° NNW
ALOS 4.2 05:18:40 10° NW 05:19:45 11° NW 05:20:50 10° WNW
Cosmos 1733 3.3 05:16:39 10° NNW 05:20:16 49° W 05:23:52 10° S
SL-27 R/B 4.4 05:18:24 10° S 05:21:38 35° ESE 05:24:52 10° NE
Cosmos 1461 4.3 05:18:48 10° W 05:22:07 23° NW 05:25:33 10° NNE
USA 290 2.5 05:21:40 10° NW 05:24:46 46° WSW 05:27:51 10° S
USA 305 3.7 05:21:16 10° WNW 05:25:12 43° NNE 05:29:08 10° E
Cosmos 2322 4.2 05:21:42 10° NNW 05:27:23 66° ENE 05:33:02 10° SE
SL-16 R/B 3.1 05:23:12 10° NW 05:27:53 27° WSW 05:32:32 10° SSW
Meteor 1-13 Rocket 4.3 05:23:31 10° S 05:29:07 85° E 05:34:40 10° NNE
NOAA 11 4.3 05:24:03 10° N 05:29:24 55° WNW 05:34:41 10° SW
Cosmos 1862 Rocket 3.6 05:25:20 10° SSW 05:29:46 68° W 05:34:14 10° N
Cosmos 1766 3.3 05:25:57 10° N 05:29:56 89° E 05:33:52 10° S
USA 234 3.9 05:25:39 10° ENE 05:32:08 60° SE 05:38:34 10° SW
